| time (UTC) | temp F | wind direction | speed MPH | gust MPH | rain 1hr in | rain 24hr in | rain mn in | humidity % | barometer mb |
| 20260507194427 | 77 | 221 | 1.0 | 2.0 | 0.00 | 0.00 | 0.00 | 68 | 1013.8 |
| 20260507193927 | 77 | 220 | 1.0 | 2.0 | 0.00 | 0.00 | 0.00 | 70 | 1013.9 |
| 20260507193427 | 76 | 221 | 1.0 | 2.0 | 0.00 | 0.00 | 0.00 | 70 | 1014.2 |
| 20260507192927 | 76 | 300 | 0.0 | 1.0 | 0.00 | 0.00 | 0.00 | 70 | 1014.4 |
| 20260507192427 | 76 | 335 | 0.0 | 3.0 | 0.00 | 0.00 | 0.00 | 69 | 1014.5 |
| 20260507191927 | 75 | 321 | 2.0 | 3.0 | 0.00 | 0.00 | 0.00 | 70 | 1014.5 |
| 20260507191427 | 75 | 326 | 2.0 | 2.0 | 0.00 | 0.00 | 0.00 | 71 | 1014.5 |
| 20260507190927 | 75 | 326 | 0.0 | 2.0 | 0.00 | 0.00 | 0.00 | 72 | 1014.9 |
| 20260507190427 | 74 | 327 | 1.0 | 2.0 | 0.00 | 0.00 | 0.00 | 74 | 1014.6 |
| 20260507185927 | 74 | 327 | 1.0 | 2.0 | 0.00 | 0.00 | 0.00 | 74 | 1014.8 |
| 20260507185427 | 74 | 318 | 1.0 | 3.0 | 0.00 | 0.00 | 0.00 | 71 | 1014.9 |
| 20260507184927 | 74 | 319 | 2.0 | 3.0 | 0.00 | 0.00 | 0.00 | 72 | 1014.9 |
| 20260507184427 | 73 | 336 | 3.0 | 4.0 | 0.00 | 0.00 | 0.00 | 72 | 1014.9 |
| 20260507183927 | 73 | 80 | 1.0 | 3.0 | 0.00 | 0.00 | 0.00 | 73 | 1015.1 |
| 20260507183427 | 72 | 74 | 0.0 | 3.0 | 0.00 | 0.00 | 0.00 | 73 | 1015.2 |
| 20260507182927 | 72 | 311 | 1.0 | 3.0 | 0.00 | 0.00 | 0.00 | 73 | 1015.3 |
| 20260507182427 | 72 | 315 | 0.0 | 3.0 | 0.00 | 0.00 | 0.00 | 74 | 1015.2 |
| 20260507181927 | 72 | 290 | 1.0 | 3.0 | 0.00 | 0.00 | 0.00 | 74 | 1015.2 |
| 20260507181428 | 71 | 317 | 1.0 | 2.0 | 0.00 | 0.00 | 0.00 | 76 | 1015.2 |
| 20260507180927 | 71 | 346 | 1.0 | 3.0 | 0.00 | 0.00 | 0.00 | 75 | 1015.2 |
| 20260507180427 | 71 | 307 | 1.0 | 3.0 | 0.00 | 0.00 | 0.00 | 75 | 1015.3 |
| 20260507175927 | 70 | 311 | 1.0 | 3.0 | 0.00 | 0.00 | 0.00 | 75 | 1015.5 |
| 20260507175427 | 70 | 321 | 1.0 | 4.0 | 0.00 | 0.00 | 0.00 | 75 | 1015.7 |
| 20260507174927 | 71 | 279 | 1.0 | 2.0 | 0.00 | 0.00 | 0.00 | 75 | 1015.6 |
| 20260507174427 | 70 | 286 | 0.0 | 1.0 | 0.00 | 0.00 | 0.00 | 76 | 1015.8 |
| 20260507173927 | 70 | 296 | 1.0 | 1.0 | 0.00 | 0.00 | 0.00 | 77 | 1015.9 |
| 20260507173427 | 70 | 296 | 0.0 | 3.0 | 0.00 | 0.00 | 0.00 | 76 | 1015.9 |
| 20260507172927 | 70 | 350 | 0.0 | 2.0 | 0.00 | 0.00 | 0.00 | 77 | 1016.0 |
| 20260507172427 | 70 | 355 | 0.0 | 3.0 | 0.00 | 0.00 | 0.00 | 77 | 1015.9 |
| 20260507171927 | 70 | 351 | 1.0 | 2.0 | 0.00 | 0.00 | 0.00 | 77 | 1015.9 |
| 20260507171427 | 69 | 355 | 0.0 | 2.0 | 0.00 | 0.00 | 0.00 | 77 | 1016.0 |
| 20260507170927 | 69 | 5 | 1.0 | 2.0 | 0.00 | 0.00 | 0.00 | 77 | 1016.0 |
| 20260507170430 | 69 | 14 | 2.0 | 2.0 | 0.00 | 0.00 | 0.00 | 77 | 1016.0 |
| 20260507165927 | 69 | 163 | 1.0 | 3.0 | 0.00 | 0.00 | 0.00 | 77 | 1016.0 |
| 20260507165428 | 69 | 316 | 0.0 | 2.0 | 0.00 | 0.00 | 0.00 | 77 | 1016.1 |
| 20260507164927 | 69 | 316 | 0.0 | 2.0 | 0.00 | 0.00 | 0.00 | 77 | 1016.1 |
| 20260507164427 | 69 | 316 | 2.0 | 3.0 | 0.00 | 0.00 | 0.00 | 77 | 1016.0 |
| 20260507163927 | 69 | 318 | 0.0 | 2.0 | 0.00 | 0.00 | 0.00 | 77 | 1015.8 |
| 20260507163427 | 69 | 322 | 0.0 | 2.0 | 0.00 | 0.00 | 0.00 | 76 | 1015.7 |
| 20260507162927 | 69 | 323 | 0.0 | 2.0 | 0.00 | 0.00 | 0.00 | 79 | 1015.6 |
| 20260507162427 | 68 | 323 | 0.0 | 2.0 | 0.00 | 0.00 | 0.00 | 78 | 1015.4 |
| 20260507161927 | 68 | 322 | 0.0 | 2.0 | 0.00 | 0.00 | 0.00 | 79 | 1015.4 |
| 20260507161430 | 67 | 250 | 2.0 | 3.0 | 0.00 | 0.00 | 0.00 | 79 | 1015.2 |
| 20260507160927 | 67 | 80 | 1.0 | 2.0 | 0.00 | 0.00 | 0.00 | 80 | 1015.1 |
| 20260507160427 | 66 | 318 | 0.0 | 2.0 | 0.00 | 0.00 | 0.00 | 82 | 1015.3 |
| 20260507155927 | 66 | 318 | 1.0 | 1.0 | 0.00 | 0.00 | 0.00 | 82 | 1015.4 |
| 20260507155427 | 65 | 318 | 0.0 | 2.0 | 0.00 | 0.00 | 0.00 | 82 | 1015.6 |
| 20260507154927 | 65 | 318 | 1.0 | 2.0 | 0.00 | 0.00 | 0.00 | 83 | 1015.5 |
| 20260507154427 | 65 | 318 | 0.0 | 2.0 | 0.00 | 0.00 | 0.00 | 83 | 1015.6 |
| 20260507153927 | 65 | 318 | 1.0 | 2.0 | 0.00 | 0.00 | 0.00 | 83 | 1015.7 |
| 20260507153427 | 64 | 323 | 1.0 | 3.0 | 0.00 | 0.00 | 0.00 | 83 | 1015.9 |
| 20260507152927 | 64 | 331 | 0.0 | 3.0 | 0.00 | 0.00 | 0.00 | 82 | 1015.9 |
| 20260507152430 | 64 | 309 | 2.0 | 3.0 | 0.00 | 0.00 | 0.00 | 82 | 1015.9 |
| 20260507151927 | 64 | 315 | 0.0 | 2.0 | 0.00 | 0.00 | 0.00 | 83 | 1015.9 |
| 20260507151430 | 64 | 315 | 0.0 | 3.0 | 0.00 | 0.00 | 0.00 | 83 | 1015.9 |
| 20260507150927 | 64 | 313 | 2.0 | 3.0 | 0.00 | 0.00 | 0.00 | 83 | 1015.9 |
| 20260507150427 | 64 | 287 | 1.0 | 2.0 | 0.00 | 0.00 | 0.00 | 84 | 1015.8 |
| 20260507145930 | 64 | 0 | 0.0 | 2.0 | 0.00 | 0.00 | 0.00 | 83 | 1015.9 |
| 20260507145430 | 64 | 322 | 1.0 | 2.0 | 0.00 | 0.00 | 0.00 | 84 | 1015.9 |
| 20260507144927 | 64 | 322 | 1.0 | 2.0 | 0.00 | 0.00 | 0.00 | 83 | 1015.6 |
| 20260507144427 | 64 | 305 | 2.0 | 3.0 | 0.00 | 0.00 | 0.00 | 83 | 1015.6 |
| 20260507143930 | 64 | 338 | 0.0 | 4.0 | 0.00 | 0.00 | 0.00 | 83 | 1015.5 |
| 20260507143427 | 64 | 298 | 3.0 | 3.0 | 0.00 | 0.00 | 0.00 | 83 | 1015.3 |
| 20260507142927 | 64 | 309 | 0.0 | 4.0 | 0.00 | 0.00 | 0.00 | 83 | 1015.2 |
| 20260507142426 | 64 | 35 | 0.0 | 1.0 | 0.00 | 0.00 | 0.00 | 84 | 1015.0 |
| 20260507141927 | 64 | 33 | 0.0 | 3.0 | 0.00 | 0.00 | 0.00 | 83 | 1015.0 |
| 20260507141427 | 64 | 327 | 1.0 | 3.0 | 0.00 | 0.00 | 0.00 | 83 | 1015.1 |
| 20260507140929 | 64 | 319 | 1.0 | 3.0 | 0.00 | 0.00 | 0.00 | 83 | 1015.3 |
| 20260507140427 | 64 | 355 | 0.0 | 3.0 | 0.00 | 0.00 | 0.00 | 83 | 1015.4 |
| 20260507135927 | 64 | 355 | 1.0 | 2.0 | 0.00 | 0.00 | 0.00 | 83 | 1015.6 |
| 20260507135427 | 64 | 355 | 1.0 | 2.0 | 0.00 | 0.00 | 0.00 | 84 | 1015.5 |
| 20260507134927 | 64 | 323 | 0.0 | 2.0 | 0.00 | 0.00 | 0.00 | 83 | 1015.5 |
| 20260507134427 | 64 | 323 | 1.0 | 2.0 | 0.00 | 0.00 | 0.00 | 84 | 1015.8 |
| 20260507133927 | 64 | 323 | 1.0 | 1.0 | 0.00 | 0.00 | 0.00 | 84 | 1015.7 |
| 20260507133427 | 64 | 323 | 1.0 | 2.0 | 0.00 | 0.00 | 0.00 | 85 | 1015.8 |
| 20260507132927 | 64 | 322 | 1.0 | 3.0 | 0.00 | 0.00 | 0.00 | 84 | 1016.0 |
| 20260507132427 | 64 | 304 | 1.0 | 2.0 | 0.00 | 0.00 | 0.00 | 85 | 1015.8 |
| 20260507131927 | 64 | 304 | 0.0 | 2.0 | 0.00 | 0.00 | 0.00 | 86 | 1015.7 |
| 20260507131427 | 64 | 304 | 0.0 | 3.0 | 0.00 | 0.00 | 0.00 | 85 | 1015.7 |
| 20260507130927 | 64 | 284 | 0.0 | 2.0 | 0.00 | 0.00 | 0.00 | 85 | 1016.0 |
| 20260507130427 | 64 | 278 | 0.0 | 2.0 | 0.00 | 0.00 | 0.00 | 85 | 1015.8 |
| 20260507125926 | 64 | 278 | 1.0 | 2.0 | 0.00 | 0.00 | 0.00 | 85 | 1015.6 |
| 20260507125427 | 64 | 278 | 2.0 | 3.0 | 0.00 | 0.00 | 0.00 | 85 | 1015.7 |
| 20260507124930 | 65 | 5 | 0.0 | 2.0 | 0.00 | 0.00 | 0.00 | 85 | 1015.5 |
| 20260507124430 | 65 | 45 | 1.0 | 2.0 | 0.00 | 0.00 | 0.00 | 85 | 1015.4 |
| 20260507123930 | 65 | 314 | 0.0 | 2.0 | 0.00 | 0.00 | 0.00 | 85 | 1015.2 |
| 20260507123427 | 65 | 314 | 1.0 | 1.0 | 0.00 | 0.00 | 0.00 | 85 | 1015.2 |
| 20260507122930 | 65 | 314 | 1.0 | 1.0 | 0.00 | 0.00 | 0.00 | 85 | 1014.9 |
| 20260507122427 | 65 | 304 | 1.0 | 2.0 | 0.00 | 0.00 | 0.00 | 85 | 1014.8 |
| 20260507121927 | 65 | 304 | 0.0 | 2.0 | 0.00 | 0.00 | 0.00 | 85 | 1014.9 |
| 20260507121427 | 65 | 304 | 1.0 | 2.0 | 0.00 | 0.00 | 0.00 | 85 | 1014.3 |
| 20260507120927 | 65 | 304 | 1.0 | 2.0 | 0.00 | 0.00 | 0.00 | 85 | 1014.5 |
| 20260507120427 | 65 | 304 | 0.0 | 2.0 | 0.00 | 0.00 | 0.00 | 85 | 1014.3 |
| 20260507115927 | 65 | 323 | 0.0 | 3.0 | 0.00 | 0.00 | 0.00 | 85 | 1014.3 |
| 20260507115427 | 66 | 323 | 1.0 | 2.0 | 0.00 | 0.00 | 0.00 | 85 | 1014.2 |
| 20260507114927 | 66 | 323 | 0.0 | 2.0 | 0.00 | 0.00 | 0.00 | 85 | 1014.3 |
| 20260507114427 | 66 | 323 | 1.0 | 3.0 | 0.00 | 0.00 | 0.00 | 84 | 1014.2 |
| 20260507113927 | 66 | 276 | 1.0 | 2.0 | 0.00 | 0.00 | 0.00 | 84 | 1013.9 |
| 20260507113430 | 66 | 319 | 1.0 | 2.0 | 0.00 | 0.00 | 0.00 | 84 | 1013.9 |
| 20260507112927 | 66 | 319 | 0.0 | 2.0 | 0.00 | 0.00 | 0.00 | 84 | 1013.6 |
| 20260507112427 | 66 | 0 | 2.0 | 2.0 | 0.00 | 0.00 | 0.00 | 84 | 1013.5 |
| 20260507111930 | 66 | 0 | 0.0 | 2.0 | 0.00 | 0.00 | 0.00 | 84 | 1013.7 |
| 20260507111427 | 66 | 0 | 0.0 | 0.0 | 0.00 | 0.00 | 0.00 | 84 | 1013.9 |
| 20260507110927 | 66 | 0 | 0.0 | 2.0 | 0.00 | 0.00 | 0.00 | 84 | 1014.0 |
| 20260507110426 | 67 | 12 | 1.0 | 1.0 | 0.00 | 0.00 | 0.00 | 84 | 1013.4 |
| 20260507105930 | 67 | 12 | 0.0 | 1.0 | 0.00 | 0.00 | 0.00 | 84 | 1013.4 |
| 20260507105427 | 67 | 16 | 1.0 | 2.0 | 0.00 | 0.00 | 0.00 | 84 | 1013.4 |
| 20260507104927 | 67 | 304 | 0.0 | 0.0 | 0.00 | 0.00 | 0.00 | 84 | 1013.3 |
| 20260507104427 | 67 | 304 | 0.0 | 1.0 | 0.00 | 0.00 | 0.00 | 85 | 1013.3 |
| 20260507103927 | 67 | 304 | 0.0 | 2.0 | 0.00 | 0.00 | 0.00 | 85 | 1013.4 |
| 20260507103427 | 67 | 304 | 0.0 | 1.0 | 0.00 | 0.00 | 0.00 | 85 | 1013.3 |
| 20260507102927 | 67 | 304 | 1.0 | 1.0 | 0.00 | 0.00 | 0.00 | 85 | 1013.4 |
| 20260507102427 | 67 | 304 | 0.0 | 0.0 | 0.00 | 0.00 | 0.00 | 85 | 1013.2 |
| 20260507101927 | 67 | 304 | 0.0 | 1.0 | 0.00 | 0.00 | 0.00 | 84 | 1013.2 |
| 20260507101427 | 67 | 304 | 0.0 | 2.0 | 0.00 | 0.00 | 0.00 | 85 | 1013.2 |
| 20260507100930 | 67 | 304 | 1.0 | 1.0 | 0.00 | 0.00 | 0.00 | 85 | 1013.2 |
| 20260507100427 | 67 | 304 | 0.0 | 1.0 | 0.00 | 0.00 | 0.00 | 85 | 1013.1 |
| 20260507095927 | 67 | 304 | 0.0 | 2.0 | 0.00 | 0.00 | 0.00 | 85 | 1013.0 |
| 20260507095427 | 67 | 304 | 0.0 | 2.0 | 0.00 | 0.00 | 0.00 | 85 | 1012.9 |
| 20260507094927 | 67 | 304 | 1.0 | 2.0 | 0.00 | 0.00 | 0.00 | 84 | 1013.1 |
| 20260507094428 | 67 | 304 | 0.0 | 2.0 | 0.00 | 0.00 | 0.00 | 84 | 1013.0 |
| 20260507093927 | 67 | 80 | 0.0 | 1.0 | 0.00 | 0.00 | 0.00 | 85 | 1012.4 |
| 20260507093427 | 67 | 80 | 0.0 | 1.0 | 0.00 | 0.00 | 0.00 | 84 | 1012.5 |
| 20260507092930 | 67 | 80 | 0.0 | 1.0 | 0.00 | 0.00 | 0.00 | 85 | 1012.6 |
| 20260507092429 | 67 | 80 | 1.0 | 2.0 | 0.00 | 0.00 | 0.00 | 85 | 1012.6 |
| 20260507091927 | 67 | 299 | 1.0 | 2.0 | 0.00 | 0.00 | 0.00 | 84 | 1012.6 |
| 20260507091427 | 67 | 296 | 1.0 | 2.0 | 0.00 | 0.00 | 0.00 | 84 | 1012.8 |
| 20260507090927 | 67 | 309 | 0.0 | 1.0 | 0.00 | 0.00 | 0.00 | 84 | 1012.8 |
| 20260507090426 | 67 | 309 | 0.0 | 1.0 | 0.00 | 0.00 | 0.00 | 84 | 1012.9 |
| 20260507085930 | 67 | 309 | 0.0 | 2.0 | 0.00 | 0.00 | 0.00 | 84 | 1012.9 |
| 20260507085427 | 67 | 309 | 1.0 | 2.0 | 0.00 | 0.00 | 0.00 | 84 | 1012.7 |
| 20260507084927 | 67 | 309 | 0.0 | 2.0 | 0.00 | 0.00 | 0.00 | 84 | 1012.7 |
| 20260507084427 | 67 | 309 | 0.0 | 4.0 | 0.00 | 0.00 | 0.00 | 84 | 1013.0 |
| 20260507083927 | 67 | 300 | 1.0 | 1.0 | 0.00 | 0.00 | 0.00 | 84 | 1012.9 |
| 20260507083427 | 67 | 300 | 0.0 | 2.0 | 0.00 | 0.00 | 0.00 | 83 | 1012.7 |
| 20260507082926 | 67 | 300 | 0.0 | 2.0 | 0.00 | 0.00 | 0.00 | 84 | 1012.6 |
| 20260507082427 | 67 | 300 | 1.0 | 2.0 | 0.00 | 0.00 | 0.00 | 84 | 1012.7 |
| 20260507081926 | 67 | 300 | 0.0 | 3.0 | 0.00 | 0.00 | 0.00 | 83 | 1012.7 |
| 20260507081427 | 67 | 313 | 0.0 | 2.0 | 0.00 | 0.00 | 0.00 | 83 | 1012.7 |
| 20260507080927 | 67 | 313 | 2.0 | 2.0 | 0.00 | 0.00 | 0.00 | 83 | 1012.8 |
| 20260507080427 | 67 | 317 | 1.0 | 2.0 | 0.00 | 0.00 | 0.00 | 83 | 1012.5 |
| 20260507075930 | 68 | 312 | 0.0 | 2.0 | 0.00 | 0.00 | 0.00 | 83 | 1012.7 |
| 20260507075426 | 67 | 312 | 1.0 | 2.0 | 0.00 | 0.00 | 0.00 | 83 | 1012.6 |
| 20260507074927 | 68 | 312 | 0.0 | 2.0 | 0.00 | 0.00 | 0.00 | 83 | 1012.7 |
| 20260507074427 | 67 | 312 | 1.0 | 1.0 | 0.00 | 0.00 | 0.00 | 83 | 1013.0 |
| 20260507073930 | 67 | 312 | 0.0 | 1.0 | 0.00 | 0.00 | 0.00 | 83 | 1012.9 |
| 20260507073427 | 68 | 312 | 0.0 | 2.0 | 0.00 | 0.00 | 0.00 | 83 | 1012.8 |
| 20260507072927 | 68 | 312 | 1.0 | 2.0 | 0.00 | 0.00 | 0.00 | 83 | 1013.0 |
| 20260507072426 | 68 | 312 | 0.0 | 3.0 | 0.00 | 0.00 | 0.00 | 83 | 1012.9 |
| 20260507071927 | 68 | 312 | 3.0 | 2.0 | 0.00 | 0.00 | 0.00 | 83 | 1013.0 |
| 20260507071426 | 68 | 306 | 0.0 | 3.0 | 0.00 | 0.00 | 0.00 | 83 | 1013.0 |
| 20260507070927 | 68 | 310 | 0.0 | 3.0 | 0.00 | 0.00 | 0.00 | 82 | 1013.3 |
| 20260507070427 | 68 | 329 | 0.0 | 2.0 | 0.00 | 0.00 | 0.00 | 82 | 1013.3 |
| 20260507065930 | 68 | 340 | 0.0 | 3.0 | 0.00 | 0.00 | 0.00 | 82 | 1013.1 |
| 20260507065430 | 68 | 340 | 0.0 | 3.0 | 0.00 | 0.00 | 0.00 | 82 | 1012.9 |
| 20260507064929 | 68 | 0 | 1.0 | 2.0 | 0.00 | 0.00 | 0.00 | 82 | 1012.9 |
| 20260507064427 | 68 | 323 | 1.0 | 4.0 | 0.00 | 0.00 | 0.00 | 82 | 1013.3 |
| 20260507063930 | 68 | 309 | 0.0 | 2.0 | 0.00 | 0.00 | 0.00 | 82 | 1013.4 |
| 20260507063427 | 68 | 309 | 0.0 | 1.0 | 0.00 | 0.00 | 0.00 | 82 | 1012.9 |
| 20260507062930 | 68 | 309 | 0.0 | 2.0 | 0.00 | 0.00 | 0.00 | 82 | 1013.0 |
| 20260507062427 | 68 | 309 | 0.0 | 1.0 | 0.00 | 0.00 | 0.00 | 82 | 1013.4 |
| 20260507061926 | 68 | 309 | 1.0 | 2.0 | 0.00 | 0.00 | 0.00 | 82 | 1013.3 |
| 20260507061427 | 68 | 307 | 1.0 | 3.0 | 0.00 | 0.00 | 0.00 | 81 | 1012.9 |
| 20260507060927 | 68 | 329 | 1.0 | 3.0 | 0.00 | 0.00 | 0.00 | 81 | 1012.8 |
| 20260507060427 | 69 | 316 | 1.0 | 2.0 | 0.00 | 0.00 | 0.00 | 81 | 1012.8 |
| 20260507055927 | 69 | 316 | 1.0 | 2.0 | 0.00 | 0.00 | 0.00 | 81 | 1013.0 |
| 20260507055427 | 69 | 316 | 0.0 | 1.0 | 0.00 | 0.00 | 0.00 | 81 | 1012.8 |
| 20260507054927 | 69 | 316 | 0.0 | 3.0 | 0.00 | 0.00 | 0.00 | 81 | 1012.8 |
| 20260507054427 | 69 | 323 | 1.0 | 2.0 | 0.00 | 0.00 | 0.00 | 81 | 1012.9 |
| 20260507053926 | 69 | 323 | 1.0 | 3.0 | 0.00 | 0.00 | 0.00 | 80 | 1012.8 |
| 20260507053427 | 69 | 256 | 2.0 | 2.0 | 0.00 | 0.00 | 0.00 | 81 | 1012.7 |
| 20260507052927 | 69 | 256 | 1.0 | 3.0 | 0.00 | 0.00 | 0.00 | 80 | 1012.6 |
| 20260507052427 | 70 | 355 | 2.0 | 3.0 | 0.00 | 0.00 | 0.00 | 80 | 1012.8 |
| 20260507051927 | 70 | 311 | 1.0 | 2.0 | 0.00 | 0.00 | 0.00 | 80 | 1012.7 |
| 20260507051429 | 70 | 311 | 1.0 | 1.0 | 0.00 | 0.00 | 0.00 | 81 | 1012.6 |
| 20260507050926 | 70 | 311 | 1.0 | 2.0 | 0.00 | 0.00 | 0.00 | 80 | 1012.7 |
| 20260507050430 | 70 | 311 | 1.0 | 2.0 | 0.00 | 0.00 | 0.00 | 80 | 1012.7 |
| 20260507045927 | 70 | 303 | 1.0 | 2.0 | 0.00 | 0.00 | 0.00 | 81 | 1012.7 |
| 20260507045427 | 70 | 327 | 0.0 | 2.0 | 0.00 | 0.00 | 0.00 | 80 | 1012.7 |
| 20260507044927 | 70 | 327 | 1.0 | 3.0 | 0.00 | 0.00 | 0.00 | 80 | 1012.7 |
| 20260507044428 | 70 | 327 | 2.0 | 3.0 | 0.00 | 0.00 | 0.00 | 80 | 1012.8 |
| 20260507043927 | 71 | 304 | 1.0 | 3.0 | 0.00 | 0.00 | 0.00 | 79 | 1012.7 |
| 20260507043427 | 71 | 296 | 1.0 | 2.0 | 0.00 | 0.00 | 0.00 | 79 | 1012.7 |
| 20260507042927 | 71 | 321 | 0.0 | 1.0 | 0.00 | 0.00 | 0.00 | 80 | 1012.7 |
| 20260507042427 | 71 | 321 | 0.0 | 2.0 | 0.00 | 0.00 | 0.00 | 80 | 1012.7 |
| 20260507041930 | 71 | 321 | 0.0 | 1.0 | 0.00 | 0.00 | 0.00 | 80 | 1012.6 |
| 20260507041426 | 71 | 321 | 1.0 | 2.0 | 0.00 | 0.00 | 0.00 | 80 | 1012.6 |
| 20260507040930 | 72 | 321 | 0.0 | 2.0 | 0.00 | 0.00 | 0.00 | 80 | 1012.6 |
| 20260507040426 | 72 | 321 | 0.0 | 1.0 | 0.00 | 0.00 | 0.00 | 80 | 1012.6 |
| 20260507035927 | 72 | 321 | 0.0 | 2.0 | 0.00 | 0.00 | 0.00 | 80 | 1012.5 |
| 20260507035427 | 72 | 321 | 0.0 | 1.0 | 0.00 | 0.00 | 0.00 | 80 | 1012.6 |
| 20260507034928 | 72 | 323 | 1.0 | 3.0 | 0.00 | 0.00 | 0.00 | 80 | 1012.5 |
| 20260507034427 | 72 | 311 | 0.0 | 3.0 | 0.00 | 0.00 | 0.00 | 80 | 1012.4 |
| 20260507033930 | 72 | 338 | 0.0 | 3.0 | 0.00 | 0.00 | 0.00 | 80 | 1012.4 |
| 20260507033427 | 72 | 306 | 1.0 | 2.0 | 0.00 | 0.00 | 0.00 | 80 | 1012.4 |
| 20260507032926 | 72 | 306 | 1.0 | 2.0 | 0.00 | 0.00 | 0.00 | 80 | 1012.2 |
| 20260507032427 | 72 | 306 | 2.0 | 2.0 | 0.00 | 0.00 | 0.00 | 80 | 1012.1 |
| 20260507031930 | 72 | 320 | 0.0 | 1.0 | 0.00 | 0.00 | 0.00 | 80 | 1011.9 |
| 20260507031427 | 72 | 320 | 0.0 | 2.0 | 0.00 | 0.00 | 0.00 | 79 | 1011.8 |
| 20260507030926 | 73 | 320 | 2.0 | 3.0 | 0.00 | 0.00 | 0.00 | 79 | 1011.8 |
| 20260507030427 | 73 | 320 | 1.0 | 2.0 | 0.00 | 0.00 | 0.00 | 80 | 1011.6 |
| 20260507025931 | 73 | 320 | 0.0 | 2.0 | 0.00 | 0.00 | 0.00 | 79 | 1011.6 |
| 20260507025427 | 73 | 320 | 0.0 | 2.0 | 0.00 | 0.00 | 0.00 | 80 | 1011.4 |
| 20260507024927 | 73 | 320 | 1.0 | 2.0 | 0.00 | 0.00 | 0.00 | 79 | 1011.4 |
| 20260507024427 | 73 | 320 | 1.0 | 3.0 | 0.00 | 0.00 | 0.00 | 79 | 1011.4 |
| 20260507023926 | 74 | 320 | 0.0 | 3.0 | 0.00 | 0.00 | 0.00 | 79 | 1011.3 |
| 20260507023430 | 74 | 319 | 2.0 | 2.0 | 0.00 | 0.00 | 0.00 | 80 | 1011.1 |
| 20260507022927 | 74 | 319 | 0.0 | 3.0 | 0.00 | 0.00 | 0.00 | 79 | 1010.9 |
| 20260507022427 | 74 | 322 | 2.0 | 2.0 | 0.00 | 0.00 | 0.00 | 79 | 1010.8 |
| 20260507021927 | 74 | 322 | 0.0 | 2.0 | 0.00 | 0.00 | 0.00 | 80 | 1010.7 |
| 20260507021427 | 74 | 322 | 1.0 | 2.0 | 0.00 | 0.00 | 0.00 | 79 | 1010.7 |
| 20260507020927 | 75 | 322 | 1.0 | 1.0 | 0.00 | 0.00 | 0.00 | 80 | 1010.5 |
| 20260507020427 | 75 | 322 | 0.0 | 0.0 | 0.00 | 0.00 | 0.00 | 81 | 1010.4 |
| 20260507015927 | 75 | 322 | 0.0 | 1.0 | 0.00 | 0.00 | 0.00 | 81 | 1010.3 |
| 20260507015427 | 75 | 322 | 1.0 | 2.0 | 0.00 | 0.00 | 0.00 | 81 | 1010.2 |
| 20260507014927 | 75 | 322 | 0.0 | 2.0 | 0.00 | 0.00 | 0.00 | 80 | 1010.1 |
| 20260507014427 | 75 | 322 | 0.0 | 2.0 | 0.00 | 0.00 | 0.00 | 80 | 1010.0 |
| 20260507013927 | 75 | 322 | 1.0 | 3.0 | 0.00 | 0.00 | 0.00 | 80 | 1010.0 |
| 20260507013427 | 75 | 322 | 0.0 | 3.0 | 0.00 | 0.00 | 0.00 | 81 | 1009.9 |
| 20260507012927 | 76 | 321 | 1.0 | 3.0 | 0.00 | 0.00 | 0.00 | 81 | 1009.7 |
| 20260507012427 | 76 | 331 | 1.0 | 3.0 | 0.00 | 0.00 | 0.00 | 81 | 1009.6 |
| 20260507011930 | 76 | 319 | 0.0 | 2.0 | 0.00 | 0.00 | 0.00 | 81 | 1009.5 |
| 20260507011431 | 76 | 319 | 0.0 | 2.0 | 0.00 | 0.00 | 0.00 | 81 | 1009.5 |
| 20260507010427 | 77 | 319 | 0.0 | 2.0 | 0.00 | 0.00 | 0.00 | 81 | 1009.4 |
| 20260507005927 | 77 | 319 | 0.0 | 2.0 | 0.00 | 0.00 | 0.00 | 80 | 1009.2 |
| 20260507005427 | 77 | 319 | 1.0 | 2.0 | 0.00 | 0.00 | 0.00 | 80 | 1009.0 |
| 20260507004930 | 77 | 319 | 1.0 | 2.0 | 0.00 | 0.00 | 0.00 | 79 | 1009.0 |
| 20260507004427 | 78 | 333 | 1.0 | 2.0 | 0.00 | 0.00 | 0.00 | 79 | 1009.0 |
| 20260507003930 | 78 | 340 | 1.0 | 2.0 | 0.00 | 0.00 | 0.00 | 78 | 1008.9 |
| 20260507003427 | 79 | 340 | 0.0 | 2.0 | 0.00 | 0.00 | 0.00 | 77 | 1008.7 |
| 20260507002929 | 79 | 339 | 1.0 | 2.0 | 0.00 | 0.00 | 0.00 | 76 | 1008.8 |
| 20260507002427 | 80 | 339 | 1.0 | 5.0 | 0.00 | 0.00 | 0.00 | 75 | 1008.6 |
| 20260507001930 | 82 | 328 | 1.0 | 3.0 | 0.00 | 0.00 | 0.00 | 75 | 1008.5 |
| 20260507001426 | 83 | 329 | 1.0 | 3.0 | 0.00 | 0.00 | 0.00 | 74 | 1008.4 |
| 20260507000927 | 84 | 325 | 1.0 | 2.0 | 0.00 | 0.00 | 0.00 | 81 | 1008.0 |
| 20260507000428 | 84 | 325 | 0.0 | 0.0 | 0.00 | 0.00 | 0.00 | 81 | 1008.0 |
| 20260506235926 | 84 | 325 | 0.0 | 0.0 | 0.00 | 0.00 | 0.00 | 81 | 1007.9 |
| 20260506235426 | 84 | 325 | 0.0 | 0.0 | 0.00 | 0.00 | 0.00 | 80 | 1008.0 |
| 20260506234926 | 84 | 325 | 0.0 | 0.0 | 0.00 | 0.00 | 0.00 | 80 | 1008.1 |
| 20260506234427 | 84 | 325 | 0.0 | 0.0 | 0.00 | 0.00 | 0.00 | 80 | 1008.1 |
| 20260506233926 | 84 | 325 | 0.0 | 0.0 | 0.00 | 0.00 | 0.00 | 80 | 1007.9 |
| 20260506233427 | 84 | 325 | 0.0 | 0.0 | 0.00 | 0.00 | 0.00 | 81 | 1007.9 |
| 20260506232927 | 84 | 325 | 0.0 | 0.0 | 0.00 | 0.00 | 0.00 | 80 | 1007.9 |
| 20260506232427 | 84 | 325 | 0.0 | 2.0 | 0.00 | 0.00 | 0.00 | 80 | 1007.8 |
| 20260506231927 | 84 | 325 | 0.0 | 0.0 | 0.00 | 0.00 | 0.00 | 80 | 1007.8 |
| 20260506231426 | 84 | 325 | 0.0 | 0.0 | 0.00 | 0.00 | 0.00 | 81 | 1007.8 |
| 20260506230927 | 84 | 325 | 0.0 | 0.0 | 0.00 | 0.00 | 0.00 | 81 | 1007.9 |
| 20260506230430 | 84 | 325 | 0.0 | 0.0 | 0.00 | 0.00 | 0.00 | 81 | 1007.9 |
| 20260506225927 | 84 | 325 | 0.0 | 0.0 | 0.00 | 0.00 | 0.00 | 81 | 1007.9 |
| 20260506225427 | 84 | 325 | 0.0 | 0.0 | 0.00 | 0.00 | 0.00 | 80 | 1008.0 |
| 20260506224926 | 85 | 325 | 0.0 | 0.0 | 0.00 | 0.00 | 0.00 | 80 | 1007.9 |
| 20260506224427 | 85 | 325 | 0.0 | 0.0 | 0.00 | 0.00 | 0.00 | 80 | 1007.9 |
| 20260506223927 | 85 | 325 | 0.0 | 0.0 | 0.00 | 0.00 | 0.00 | 79 | 1007.8 |
| 20260506223427 | 85 | 325 | 0.0 | 0.0 | 0.00 | 0.00 | 0.00 | 79 | 1007.8 |
| 20260506222926 | 85 | 325 | 0.0 | 1.0 | 0.00 | 0.00 | 0.00 | 78 | 1007.8 |
| 20260506222427 | 85 | 325 | 0.0 | 0.0 | 0.00 | 0.00 | 0.00 | 79 | 1007.7 |
| 20260506221927 | 85 | 325 | 0.0 | 0.0 | 0.00 | 0.00 | 0.00 | 79 | 1007.7 |
| 20260506221427 | 85 | 325 | 0.0 | 0.0 | 0.00 | 0.00 | 0.00 | 78 | 1007.6 |
| 20260506220926 | 85 | 325 | 0.0 | 0.0 | 0.00 | 0.00 | 0.00 | 78 | 1007.6 |
| 20260506220427 | 85 | 325 | 0.0 | 1.0 | 0.00 | 0.00 | 0.00 | 78 | 1007.5 |
| 20260506215927 | 85 | 325 | 0.0 | 2.0 | 0.00 | 0.00 | 0.00 | 78 | 1007.6 |
| 20260506215427 | 85 | 325 | 1.0 | 2.0 | 0.00 | 0.00 | 0.00 | 78 | 1007.6 |
| 20260506214927 | 85 | 325 | 0.0 | 1.0 | 0.00 | 0.00 | 0.00 | 81 | 1007.5 |
| 20260506214429 | 84 | 325 | 0.0 | 0.0 | 0.00 | 0.00 | 0.00 | 81 | 1007.6 |
| 20260506213930 | 84 | 325 | 0.0 | 1.0 | 0.00 | 0.00 | 0.00 | 80 | 1007.8 |
| 20260506213429 | 84 | 325 | 0.0 | 2.0 | 0.00 | 0.00 | 0.00 | 79 | 1007.8 |
| 20260506212926 | 85 | 325 | 0.0 | 1.0 | 0.00 | 0.00 | 0.00 | 79 | 1007.8 |
| 20260506212427 | 85 | 325 | 0.0 | 1.0 | 0.00 | 0.00 | 0.00 | 79 | 1007.6 |
| 20260506211927 | 85 | 325 | 0.0 | 2.0 | 0.00 | 0.00 | 0.00 | 78 | 1007.6 |
| 20260506211431 | 85 | 325 | 1.0 | 2.0 | 0.00 | 0.00 | 0.00 | 78 | 1007.6 |
| 20260506210927 | 85 | 325 | 0.0 | 0.0 | 0.00 | 0.00 | 0.00 | 78 | 1007.5 |
| 20260506210426 | 85 | 325 | 0.0 | 0.0 | 0.00 | 0.00 | 0.00 | 77 | 1007.7 |
| 20260506205927 | 85 | 325 | 0.0 | 0.0 | 0.00 | 0.00 | 0.00 | 77 | 1007.7 |
| 20260506205426 | 86 | 325 | 0.0 | 1.0 | 0.00 | 0.00 | 0.00 | 77 | 1007.8 |
| 20260506204927 | 86 | 325 | 1.0 | 1.0 | 0.00 | 0.00 | 0.00 | 76 | 1007.9 |
| 20260506204426 | 86 | 325 | 0.0 | 0.0 | 0.00 | 0.00 | 0.00 | 78 | 1008.0 |
| 20260506203927 | 86 | 325 | 0.0 | 0.0 | 0.00 | 0.00 | 0.00 | 77 | 1008.1 |
| 20260506203430 | 86 | 325 | 0.0 | 0.0 | 0.00 | 0.00 | 0.00 | 76 | 1008.1 |
| 20260506202927 | 86 | 325 | 0.0 | 0.0 | 0.00 | 0.00 | 0.00 | 76 | 1008.0 |
| 20260506202427 | 86 | 325 | 0.0 | 1.0 | 0.00 | 0.00 | 0.00 | 75 | 1008.1 |
| 20260506201930 | 86 | 325 | 0.0 | 1.0 | 0.00 | 0.00 | 0.00 | 76 | 1008.1 |
| 20260506201426 | 86 | 325 | 0.0 | 3.0 | 0.00 | 0.00 | 0.00 | 75 | 1008.1 |
| 20260506200927 | 86 | 36 | 0.0 | 1.0 | 0.00 | 0.00 | 0.00 | 75 | 1008.3 |
| 20260506200427 | 86 | 36 | 0.0 | 1.0 | 0.00 | 0.00 | 0.00 | 76 | 1008.4 |
| 20260506195927 | 86 | 36 | 0.0 | 1.0 | 0.00 | 0.00 | 0.00 | 76 | 1008.4 |
| 20260506195426 | 86 | 25 | 0.0 | 0.0 | 0.00 | 0.00 | 0.00 | 75 | 1008.5 |
| 20260506194930 | 86 | 25 | 0.0 | 1.0 | 0.00 | 0.00 | 0.00 | 75 | 1008.5 |